THOR BURNER 2 R/B, 2985

Orbit data source: Space-Track

THOR BURNER 2 R/B, 2985 is space debris in SSO originally from a launch on Wed, 11 Oct 1967 UTC launched from the Air Force Western Test Range (AFWTR). Debris objects in space refer to the collection of defunct objects orbiting the Earth. Examples of debris include non-operational satellites, rocket bodies, and fragments generated from explosions, collisions, or faulty payload assembly.

Loading next visibility...
Identifier
2985, 1967-096B
Orbit
SSO
Country
Flag of USUS
Related business
Manufacturer
Thiokol/TE
Mission
Spacecraft
Bus & Motor
STAR 37, Unknown motor
Mass
154 kg wet, 154 kg dry
Launch date (UTC)
1967-10-11 (58 years ago)
Launch vehicle
Unknown
Launch site
Air Force Western Test Range (AFWTR)
Object type
Payload
Rocket body
Debris
Shape & HBR
Unknown
Radar Cross Section
Large (>1 m²)

Expand to show TLE details & history
Last TLE update: 6 hours ago

TLE from 6 hours ago
0 THOR BURNER 2 R/B
1 02985U 67096B   25295.92236317  .00001611  00000-0  27091-3 0  9999
2 02985  99.1747 297.4589 0084129  76.5984 284.4579 14.69001456 58356
Epoch: 2025-10-22T22:08Z
TLE epoch observation values (Epoch: 2025-10-22T22:08:12.177Z)
Latitude
-0.00003°
Longitude
-66.18085°
Altitude
652.897 km
Speed
7.539 km/s
True Right ascension
19h 49m 50s
True Declination
0° 00' 00"
Sunlit
Object was in daylight at epoch
Visualization orbit readout
Latitude
Unknown
Longitude
Unknown
Altitude
Unknown
Speed
Unknown
Apparent Right ascension
Unknown
Apparent Declination
Unknown
Sunlit
N/A
Visualization observer readout
Local Sidereal Time
23:33:17
Azimuth
Unknown
Elevation
Unknown
Doppler factor
Unknown
Orbital elements
Apogee altitude
720.597 km
Perigee altitude
602.151 km
Semi-major axis
7,039.511 km
Eccentricity
0.00841
Inclination
99.1747°
RAAN
297.4589°
Arg. of periapsis
76.5984°
True anomaly
283.52197°
Mean anomaly
284.4579°
Eccentric anomaly
283.99017°
Mean motion
3.67476 °/min
Orbital period
97.97 mins
BSTAR
0.00027091
Loading maneuver chart data...
Computing Atmospheric mass density...
Loading historical data...
Loading historical data...
Loading historical data...
Loading historical data...
Loading historical data...
Loading historical data...
Loading historical data...
Other satellites on launch #96 in the year 1967 (1967-10-11 UTC)

Documentation

Showing up to 5 results
|